This is the latest recevied weather packets stored in our database for station/object DC0PP-10. If no packets are shown the sender has not sent any weather packets the latest 10 day(s).
| Time | Temp. | Humidity | Pressure | Rain* | Wind** | Luminosity | Snow |
|---|---|---|---|---|---|---|---|
| 1777931749 | 15.56° C | 91% | 1014.4 hPa | - | - | - | - |
| 1777930849 | 15.56° C | 90% | 1014.5 hPa | - | - | - | - |
| 1777929951 | 16.11° C | 91% | 1014.8 hPa | - | - | - | - |
| 1777929048 | 16.11° C | 89% | 1015 hPa | - | - | - | - |
| 1777928148 | 16.11° C | 88% | 1015 hPa | - | - | - | - |
| 1777927248 | 16.11° C | 87% | 1014.9 hPa | - | - | - | - |
| 1777926348 | 16.11° C | 87% | 1014.8 hPa | - | - | - | - |
| 1777925448 | 16.11° C | 85% | 1014.8 hPa | - | - | - | - |
| 1777924548 | 16.67° C | 86% | 1014.5 hPa | - | - | - | - |
| 1777923648 | 16.67° C | 86% | 1014.5 hPa | - | - | - | - |
| 1777922747 | 17.22° C | 82% | 1014.5 hPa | - | - | - | - |
| 1777921846 | 17.22° C | 80% | 1014.5 hPa | - | - | - | - |
| 1777920946 | 17.78° C | 75% | 1014.4 hPa | - | - | - | - |
| 1777920046 | 18.33° C | 74% | 1014.6 hPa | - | - | - | - |
| 1777919151 | 18.89° C | 69% | 1014.6 hPa | - | - | - | - |
| 1777918251 | 18.89° C | 70% | 1014.7 hPa | - | - | - | - |
| 1777917351 | 19.44° C | 64% | 1014.6 hPa | - | - | - | - |
| 1777916451 | 20° C | 63% | 1014.6 hPa | - | - | - | - |
| 1777915550 | 20° C | 65% | 1014.6 hPa | - | - | - | - |
| 1777914650 | 20° C | 62% | 1014.7 hPa | - | - | - | - |
| 1777913750 | 20° C | 56% | 1014.6 hPa | - | - | - | - |
| 1777912850 | 21.11° C | 54% | 1014.6 hPa | - | - | - | - |
| 1777911949 | 21.11° C | 50% | 1014.6 hPa | - | - | - | - |
| 1777911049 | 21.11° C | 49% | 1014.6 hPa | - | - | - | - |
| 1777910148 | 21.11° C | 50% | 1014.6 hPa | - | - | - | - |
* Rain since midnight (hover to see other rain measurements)
** Current wind speed in m/s (hover to see current wind gust speed)